Race Results for
US Cup Sagebrush Safari
Lake Morena, CA
(Event Information)
Cross Country on 05/19/2013

Note: Ranking points are NOT upgrade points. An explanation of ranking points can be found here.


Men - CAT 3 - CLYDESDALES - 1-34

 Place Points NameCity, StateTime USAC #BibTeam
1 JUAN CUEVAS   1:52:00.57  411 
2 OSCAR GUTIERREZ   1:56:19.91  594 RED ZONE RACING
3 VICTOR CAPUCHINO   3:26:52.45  1317 TEADHEADS/ZUMWALTS

Men - CAT 3 - JUNIOR - 15-18

 Place Points NameCity, StateTime USAC #BibTeam
1540.00 DANNY MOLLINEDA   Santa Ana 1:48:19.59 398140  209 RELAMPAGO RACING
2565.00 HANK EVANS   Longbeach, CA1:56:52.02 306132  295 
3 DAVID STRINGFELLOW   2:00:04.57  1372 

Men - CAT 3 - SENIOR - 25-29

 Place Points NameCity, StateTime USAC #BibTeam
1 MIKE STEWART   Portland Or1:46:30.25 375757  80 

Men - CAT 3 - MASTER - 30-34

 Place Points NameCity, StateTime USAC #BibTeam
1 KEVIN KUENNEN   1:31:04.92  1233 
2552.50 MATT MAXFELDT   Ramona, CA1:32:44.38 366637  1321 MOMENT CYCLE SPORT
3 JORGE MOTA   1:36:35.45  88 RED ZONE RACING
4577.50 MATT BOONE   Fontana, CA1:41:47.39 369063  92 RED ZONE RACING
5590.00 IGNACIO JIMENEZ   Brea , CA1:44:16.78 355282  93 RED ZONE RACING

Men - CAT 3 - CLYDESDALES - 35+

 Place Points NameCity, StateTime USAC #BibTeam
1540.00 STEVE SOMMERS   Riverside, CA1:46:52.74 126947  1378 
2 MARTIN LEIKARTS   1:49:35.54  477 GOOGLY EYES
3 ALEX PAPIKE   2:08:17.99  1313 SCUMB
4577.50 SCOTT DELAURENTIS   San Diego, CA2:24:10.00 155439  1300 ZUMWALTS/TREADHEADS
5590.00 SCOTT HYDE   Big Bear Cityb, CA3:02:27.05 394738  193 BEAR VALLEY BIKES

Men - CAT 3 - MASTER - 35-39

 Place Points NameCity, StateTime USAC #BibTeam
1 BRIAN HUNOT   1:31:12.63  1071 
2542.43 GARY B GARMAN   Oak Park, CA1:32:41.34 388931  188 TRIPLE THREAT
3544.86 MICHAEL HENRY   La Jolla, CA1:33:47.08 370812  34 AQUAL AL 2-SDBC
4547.29 HERB SIROTA   Simi Valley1:34:26.25 391991  1251 TRIPLE THREAT
5549.72 BRIAN JOHNSON   Beaumont1:37:31.58 376962  120 RYF PERFORMANCE
6 GERARDO MARTINEZ   1:38:54.96  89 RED ZONE RACING
7554.58 COREY DEMANTY   Aliso Viejo, CA1:39:14.54 393453  463 KASEL CYCLING-JAX BI
8 PEDRO GARCIA   1:40:12.25  465 FOUR FIVE RACING
9 ARTURO NAVARRO   1:42:55.33  1376 MEXICALI MTB
10 BEN ISLAS   1:47:59.32  1285 LINKED CYCLING
11 SANTIAGO MELCHOR   1:58:58.50  313 
12 STEVE LOPEZ   2:01:35.57  410 
13569.16 DANIEL BERGSTROM   San Diego, CA2:03:19.58 423590  1314 
14 ENRIQUE HERNANDEZ   2:13:21.72  412 
DNF ROBERTO DIAZ   DNF  1368 

Men - CAT 3 - MASTER - 40-44

 Place Points NameCity, StateTime USAC #BibTeam
1540.00 BRYANT LIKES   Simi Valley, CA1:31:55.43 345896  176 TRIPLE THREAT
2 DALES HOLMES   1:32:38.77  1333 
3 CHRIS JONES   1:37:18.20  850 
4552.51 FERNANDO CAMARENA   Chula Vista, CA1:37:28.81 207360  409 
5556.68 ROBERT DONOVAN   Los Angeles1:42:51.70 293496  926 KNAPPS CYCLERY
6560.85 OMAR ESTRADA   Buena Park, CA1:43:07.13 199503  1374 ACQUA AL 2/SDBC
7 BOW LEMP   1:43:45.05  45 ROKFORM/ROCKnROAD
8569.19 STEVE MINNE   Stanford, CA1:44:54.02 24556  112 HOPE RANCH RACING
9573.36 JACK CHOU   Ontario, CA1:46:46.59 167832  876 ROKFORM/ROCKnROAD
10 RICHARD STOKES   1:47:27.07  554 MEADOWVIEW MOUNTAIN
11 SAL MARTINEZ   1:51:19.82  90 RED ZONE RACING
12585.87 AARON ATKINS   Memphis, TN1:59:44.30 124815  396 DONS BIKES
13 ROBERT MODICA   2:27:26.90  1347 
DNF JOSEPH GUARINO   Gales Ferry, CTDNF 14340  1364 

Men - CAT 3 - MASTER - 45-49

 Place Points NameCity, StateTime USAC #BibTeam
1540.00 Richard Ramsey   Laguna Beach, CA1:36:37.67 29111  467 ROKFORM/ROCKnROAD
2543.94 KEVIN BEACH   Fullerton, CA1:39:46.48 235195  273 AMERICAN INTERBAC CA
3547.88 DAVID BURRIDGE   Granada Hills, CA1:43:51.58 381177  461 
4551.82 DARIUS KHAYAT   San Marcos, CA1:43:57.48 276824  607 
5555.76 JEFF OLSON   Irvine, CA1:45:23.26 307560  927 ROKFORM/ROCKnROAD
6559.70 SHAUN CONDON   Santa Barbara, CA1:46:24.84 7533  307 S.C.RACING
7563.64 DAVE DAIN   Rancho Cucamonga1:47:21.60 390990  84 SC VELO
8 JOE KRIVDA   1:48:01.25  139 
9571.52 MICHAEL HO   San Jose, CA1:49:26.55 335136  47 LINKED CYCLING
10575.46 JOHN ONEILL   Manitou Springs, CO1:52:26.67 62819  1308 
11 TODD HUNSAKER   1:54:46.86  634 
12 WAYNE YORK   2:04:40.00  109 BAGHOUSE/ROCKnROAD
DNF ERIC GARCIA   Albuquerque, NMDNF 295459  108 BAGHOUSE/ROCKnROAD
DNF GREG AMOROSO   Carlsbad, CADNS 109225  1309 

Men - CAT 3 - MASTER - 50-54

 Place Points NameCity, StateTime USAC #BibTeam
1 DEMETRIO ADAME   1:30:50.04  1341 VELOZ
2544.55 MIKE QUICK   San Diego, CA1:32:21.97 51575  1381 UC CYLERY/JW FLOWS
3549.10 JOSH WOLFF   Laguna Beach, CA1:35:40.58 375356  142 ROKFORM/ROCKnROAD
4553.65 ROBERT DEFERRANTE   Pasadena, CA1:36:21.31 116494  469 PAA/REMAX
5558.20 BOBBY WOODS   Agoura Hills, CA1:38:27.49 381654  184 TRIPLE THREAT
6 STEVEN PARKER   1:45:40.68  1330 
7 JOHN HUNT   1:47:16.31  40 
8 DOUG FOILES   1:57:16.85  933 
9576.40 PETER DICKEY   Costa Mesa, CA1:59:59.90 300244  54 99BOTTLESCLUB.COM
10 GREG KEENE   2:10:34.10  1328 
11585.50 MARK THOME   Missoula, MT2:14:53.22 173433  138 BACKBONE
12590.05 Michael Mcghee   San Marcos, CA2:53:30.32 399252  393 

Men - CAT 3 - MASTER - 55+

 Place Points NameCity, StateTime USAC #BibTeam
1 JIM BUSBY   1:44:22.69  930 
2552.50 THOMAS CASSIDY   Sierra Madre, CA1:51:24.12 254091  256 PAA/REMAX
3 VERN BOWEN   2:09:39.35  1369 
4577.50 GEORGE COCCA   San Diego, CA2:12:20.75 147751  1334 
5 MIKE SIMS   2:18:06.41  1326 
DNF LARRY RUSSELL   Chula Vista, CADNF 216092  195 

Men - CAT 2 - SINGLESPEED

 Place Points NameCity, StateTime USAC #BibTeam
1540.00 LIAM LAWLOR   Philadelphia1:30:55.35 406107  829 
2547.14 LANCE LASPINA   Agoura Hills, CA1:32:44.59 388938  175 TRIPLE THREAT
3554.28 THAD SPARROW   Charles Town, MA1:33:58.07 125317  1306 DEEPSOUTHBICYCLES.CO
4561.42 ANDRE CAMPOS   Orange, CA1:34:50.26 389687  609 SOCAL TRAIL RIDERS
5568.56 AL GARZA   Simi Valley, CA1:34:53.35 12903  177 TRIPLE THREAT
6575.70 MICHAEL CRUZ   Whittier, CA1:35:45.61 371772  1345 KASEL CYCLING-JAX BI
7 SHAWN ZABO   1:44:43.06  129 
8589.98 STEPHEN DANN   Torrance, CA1:49:01.48 201110  464 

Men - CAT 2 - JUNIOR - 1-14

 Place Points NameCity, StateTime USAC #BibTeam
1479.38 NATHAN HICKEY   Monrovia, CA1:36:03.49 319320  66 PAA/REMAX
2497.18 JONAH SANCHEZ   Winchester, CA1:43:03.18 306696  570 BIKE RELIGION/SIMPLE
3514.98 KASEY PEREZ   Anaheim, CA1:50:17.29 425401  135 RED ZONE RACING
4532.78 CHRISTOPHER POLVOORDE   Hemet, CA1:53:58.30 383022  1382 CASINO BIKES
5550.58 ETHAN SANCHEZ   Winchester, CA1:54:17.43 318040  154 BIKE RELIGION/SIMPLE
6 JEDEDIAH KRON   2:01:15.50  1362 
7 PATRICK VANDEWALLE   2:25:00.74  1316 JULIAN GOLD

Men - CAT 2 - CLYDESDALES - 1-34

 Place Points NameCity, StateTime USAC #BibTeam
DNF KERRY WALDMAN   Escondido, CADNS 287785  36 NORTH OF THE BORDER

Men - CAT 2 - JUNIOR - 15-16

 Place Points NameCity, StateTime USAC #BibTeam
1 Evan Christenson   El Cajon, CA1:31:23.56 400214  1383 ZUMWALTS CYCLERY
2 DANIEL GUTIERREZ   1:34:29.28  1336 

Men - CAT 2 - JUNIOR - 17-18

 Place Points NameCity, StateTime USAC #BibTeam
1 CODY JUTOVSKY   Palm Desert1:35:52.19 382232  362 AMERICAN INTERBANC/C
2 ANDREW POTTORFF   1:40:22.80  1359 

Men - CAT 2 - SENIOR - 19-24

 Place Points NameCity, StateTime USAC #BibTeam
1539.78 SPENCER RATHKAMP   Stevenson Ranch, CA1:22:31.39 351922  416 GAERNE
2 MATT SMITH   1:33:38.94  105 BAGHOUSE/ROCKnROAD
3573.26 KYLE CONLEY   Woodland Hills1:34:34.94 401586  851 
4590.00 PETER PHAM   Santa Ana1:56:41.55 392189  398 TRU CYCLING/JAX BICY

Men - CAT 2 - SENIOR - 25-29

 Place Points NameCity, StateTime USAC #BibTeam
1534.85 TROY TEMPLIN   Burbank, CA1:25:02.33 366547  1358 CANNONDALE AMERICAN
2542.73 JASON DENNEY   Lake Forest, CA1:26:44.88 293640  1201 TWO WHEELS ONE PLANC
3550.61 RUBEN ALVARADO   Cathedral City, CA1:33:09.83 396291  373 BIG ORANGE CYCLING
4 KYLE TOMCZAK   1:36:01.78  429 SPIDER MONKEY RACING
5 JOHN CIAMPA   1:36:25.42  1269 KASEL CYCLING-JAX BI
6 SEAN BIRNBAUM   1:41:38.06  1080 MANDALAY BAY/MCGHIES
7 CRAIG SPEICHER   1:44:10.05  1302 
8590.01 STEVEN CARCANO   Whittier1:50:37.91 404232  597 RED ZONE RACING
DNF DOUG BARNETT   Newbury Park, CADNS 285210  435 MUSCLE MILK/CANNONDA

Men - CAT 2 - MASTER - 30-34

 Place Points NameCity, StateTime USAC #BibTeam
1 MATT ARMSTRONG   1:24:56.26  439 MUSCLE MILK/NP BIKE
2538.52 JOSHUA WEST   Westminster, CA1:26:58.50 396480  1091 BIKE RELIGION
3544.95 BENJAMIN GOYETTE   Montreal Qc1:28:10.14 379451  286 
4551.38 CHRISTOPHER SPEIRS   San Diego , CA1:30:59.39 379679  1244 
5557.81 Geoffrey Burton   Valencia, CA1:32:30.07 389153  182 TRIPLE THREAT
6 BRANDON MARTINEZ   1:33:48.17  386 
7570.67 CHRIS LONERGAN   San Diego, CA1:37:08.61 355952  430 SKILZ/SWAMIS
8577.10 DANIEL DIGIACOMO   Dana Point, CA1:38:07.48 337418  443 KASEL CYCLING-JAX BI
9583.53 BENJAMIN WENDORF   San Diego1:41:10.97 411186  937 
10589.96 CHEYNE MCKEEVER   Huntington Beach , CA1:46:15.89 262304  1377 OUT-SPOKE-N RACING

Men - CAT 2 - CLYDESDALES - 35+

 Place Points NameCity, StateTime USAC #BibTeam
1 MIKE GREEN   1:39:04.45  797 TEAM LIKE LAST NIGHT
2553.26 MICHAEL DULIN   Rancho Santa Margarita, CA1:40:46.04 189906  667 THE CYCLERY BIKE SHO
3571.63 RICH FERSCH   La Habra, CA1:54:14.94 181198  59 LA HABRE CYCLERY
4590.00 RICHARD WILHELM   Costa Mesa1:58:30.39 425321  257 BIKE RELIGION

Men - CAT 2 - MASTER - 35-39

 Place Points NameCity, StateTime USAC #BibTeam
1532.32 CHRIS LAYTON   Newbury Park, CA1:26:20.14 366383  31 MUSCLE MILK
2538.09 ALAN KADLEC   Santa Barbara, CA1:28:01.74 332416  58 TEAM POLLI VELOCE
3543.86 ALFREDO MARQUEZ   San Diego, CA1:29:41.65 368340  1343 MEXAMERICA
4 ALEJANDRO BELTRAN-AGUILAR   1:31:17.41  1335 EL BUEN SAZON
5555.40 MANUEL DOBLADO   Anaheim Hills, CA1:31:40.47 308841  1354 VELOSPORT/ROCKFORM
6561.17 KRISTOFER STEWART   Riverside, CA1:32:39.84 397605  485 
7566.94 BRYAN BRUSICK   San Pedro, CA1:32:59.60 270095  836 BEAR VALLEY BIKES
8572.71 JARAMIE DUKE   Winchester, CA1:36:27.95 298940  391 
9 GENO MEZA   1:37:49.82  107 BAGHOUSE/ROCKnROAD
10 CHRIS VERSTEEGH   1:38:33.34  401 HONDA CYCLING
11590.02 KEVIN CARLSON   Riverside, CA1:51:36.82 379688  669 G2 BIKE

Men - CAT 2 - MASTER - 40-44

 Place Points NameCity, StateTime USAC #BibTeam
1534.66 KARL LOWRY   Riverside1:27:23.60 422312  400 ROKFORM/ROCKnROAD
2538.35 JOSEPH SHELTON   Yucaipa, CA1:27:23.66 291638  849 TEAM REDLANDS/TREK
3542.04 ADAM MCCAMISH   Upland, CA1:27:44.40 426085  212 DONS BIKES
4545.73 OCIEL PEREZ   Coachella, CA1:28:04.24 365703  880 MEXICALIMTB.COM
5549.42 JOHN MOISAN   Solvang, CA1:28:19.95 569  1223 SANTA YNEZ CYCLING
6553.11 DANIEL EITMAN   Irvine, CA1:28:29.91 76629  44 KASEL CYCLING-JAX BI
7556.80 MICHAEL MONGIELLO   Jamul, CA1:31:20.13 303792  1320 
8560.49 DAVID MCWEENY   Sandiego, CA1:31:23.32 305536  76 
9 MAX AHARTZ   1:32:31.37  875 MANDALAY BAY/MCGHEES
10567.87 ROBERT DEMAIO   San Diego, CA1:33:08.95 174126  1370 FITNESS ZONC
11 JOSE VELEZ   1:36:04.87  1367 MEXICALI MTB
12575.25 TIM VANGILDER   Mission Viejo, CA1:36:15.83 138867  820 TROUPE RACING CO
13578.94 SCOTT HARDY   Oak Park, CA1:40:22.94 389352  174 TRIPLE THREAT
14582.63 BILL GIDDENS   Lakewood, CA1:41:24.72 173915  82 SC VELO
15586.32 CARL ANTON   Seattle, WA1:54:20.99 272872  1324 RECYCLED CYCLES RACI
16590.01 OMAR ALMAGUER   Whittier, CA1:57:10.66 220919  87 RED ZONE RACING
DNF KURT ROOD   DNS  446 BAGHOUSE/ROCKnROAD

Men - CAT 2 - MASTER - 45-49

 Place Points NameCity, StateTime USAC #BibTeam
1511.01 MIKE GIROUX   Agoura Hills, CA1:25:48.02 387214  169 TRIPLE THREAT
2516.58 JEFF HEALEY   San Diego, CA1:25:55.96 15588  1385 
3522.15 WADE ARNOLD   Lakewood, CA1:30:18.69 192502  81 SC VELO
4527.72 JOHN MEISSNER   Hidden Hills, CA1:30:34.47 163191  745 OCR
5533.29 JOSEPH KEAYS   Thousand Oaks, CA1:30:35.69 388952  145 TRIPLE THREAT
6538.86 JERRY SANDERS   Glendale, CA1:33:12.05 232326  253 PAA/REMAX
7544.43 CHAD SMART   Corona, CA1:33:22.06 291314  106 BAGHOUSE/ROCKnROAD
8550.00 MICHAEL NASCO   Rancho Santa Margarita, CA1:34:50.13 359059  50 ROKFORM/ROCKnROAD
9555.57 GREGORY BURCHAM   Fallbrook, CA1:36:03.13 348114  532 
10561.14 DAVID LEE TURNER   Glendale, CA1:36:33.58 251308  539 PAA/REMAX
11566.71 LEE CRANE   Carlsbad1:37:34.00 384483  217 SWAMIS
12572.28 SEAN HICKEY   Monrovia1:38:48.94 394966  67 PAA/REMAX
13577.85 ROBERT BLUE   Woodland Hills, CA1:40:42.81 110183  440 PEDALERS FORK
14 CHRIS JOHNSON   1:42:30.26  1350 ZUMACRAE
15588.99 IAN JONES   Long Beach, CA1:43:53.60 365019  35 

Men - CAT 2 - MASTER - 50-54

 Place Points NameCity, StateTime USAC #BibTeam
1 ERIC WEBSTER   1:31:50.72  390 BICYCLE NERD
2534.32 DAVID CULBERTSON   Newbury Park, CA1:31:54.42 250553  100 PLATINUM PERFORMANCE
3560.31 MARK TUCKER   San Diego, CA1:33:08.04 362416  425 AQUAL AL 2-SDBC
4 BARRY JONES   1:48:44.38  1344 

Men - CAT 2 - MASTER - 55-59

 Place Points NameCity, StateTime USAC #BibTeam
1491.73 JAY THORNTON   Laguna Beach , CA1:33:02.58 86303  200 LAGUNA CYCLERY
2508.11 BILL OUELLETTE   Agoura Hills, CA1:33:49.61 104243  183 TRIPLE THREAT
3524.49 STEVEN FARNER   Vista, CA1:35:28.46 208622  636 SKILZ/SWAMIS
4540.87 MICHAEL MCHENRY   Manitou Springs, CO1:39:03.00 100378  874 ROKFORM
5557.25 MARK DOOLEY   Anaheim Hills, CA1:39:18.80 9834  259 ROKFORM/ROCKnROAD
6573.63 MARK LUKE   Goleta, CA1:40:01.61 131303  1351 Platinum Performance Cycling Team
7590.01 ROBERT DRAPER   Ventura, CA1:56:12.95 367237  452 METAL MOUNTAIN

Men - CAT 2 - MASTER - 60-64

 Place Points NameCity, StateTime USAC #BibTeam
1539.58 SCOTT SAMPSON   Newhall, CA1:50:19.29 213711  1132 
2564.79 STEVE ENGELGAU   Lake Arrowhead, CA1:58:29.99 263284  122 BEAR VALLEY BIKES
3 HORACIO RAMIREZ   1:59:01.29  444 BAJA COYOTES

Men - CAT 1 - SINGLE SPEED

 Place Points NameCity, StateTime USAC #BibTeam
1 TIMOTHY SPARKS   Moorpark, CA2:21:24.95 250370  98 PLATINUM PERFORMANCE
2 JACOB BILLINGS   Las Vegas, NV2:27:58.25 252272  162 MADALAY BAY/MCGHIES
DNF CRAIG SISINO   Calabasas, CADNF 194529  99 PLATINUM PERFORMANCE

Men - CAT 1 - JUNIOR - 17-18

 Place Points NameCity, StateTime USAC #BibTeam
1 GERARDO ULLOA   1:14:20.52  1312 TURBO BICYCLES
2538.05 SAMUEL BELLO   Spring Valley, CA1:21:46.01 370064  348 VELOZ
3570.83 BRENT BURCHAM   Fallbrook, CA1:28:28.99 339012  531 

Men - CAT 1 - SENIOR - 19-24

 Place Points NameCity, StateTime USAC #BibTeam
1478.67 CHRIS JOHNSON   San Marcos, CA2:04:53.47 246447  504 SHOEBACCA
2515.78 BRIAN GORDON   Corona, CA2:09:13.23 308314  102 BAGHOUSE/ROCKnROAD
3552.89 GABRIEL MAROCCO   Lakeside, CA2:16:36.48 364982  1346 ACQUA AL 2/SDBC
4590.00 VU LE   Temple City, CA2:26:55.68 234645  1373 INOVATIV

Men - CAT 1 - SENIOR - 25-29

 Place Points NameCity, StateTime USAC #BibTeam
1464.12 TIM EATON   Mission Viejo, CA2:07:10.67 294345  913 AMERICAN INTERBANC C
2489.90 STEPHANE ROCH   San Diego, CA2:07:44.37 199861  450 SKILZ/SWAMIS
3515.68 JAMES PHAM   Tahoe City, CA2:18:10.19 196585  457 SUPACAZ
4541.46 GARRISON RIOS   La Mesa, CA2:19:01.09 384401  427 VELOZ
5567.24 ANTHONY BRAND   La Jolla, CA2:24:06.50 303308  1355 ENERGYLAB/BIKELAND/S
DNF CHESTER GILLMORE   Santa Barbara, CADNS 269966  16 PLATINUM PERFORMANCE

Men - CAT 1 - MASTER - 30-34

 Place Points NameCity, StateTime USAC #BibTeam
1411.97 BRANDON GRITTERS   Mission Viejo, CA2:06:04.16 207755  661 BLACKSTAR RACING
2493.31 ADAM POYTRESS   Goleta, CA2:17:49.64 260239  17 PLATINUM PERFORMANCE
3574.65 ANTHONY TINTELNOT   Edwards, CA2:22:23.38 340236  459 NATURAL DYNAMIX/BIKE
DNF RYAN ELTISTE   San Juan Capistrano, CADNS 327030  503 KASEL CYCLING-JAX BI
DNF TOMMY NELSON   La Mesa, CADNF 185399  1380 AUDI/FELT/HDX

Men - CAT 1 - MASTER - 35-39

 Place Points NameCity, StateTime USAC #BibTeam
1414.65 MARCO AROCHA   Thousand Oaks, CA2:04:38.57 287924  71 ROKFORM/ROCKnROAD
2438.55 TRENT FORD   La Jolla, CA2:07:33.43 360247  227 BLACKSTAR RACING
3462.45 DAVID SHEEK   Huntington Beach, CA2:14:35.75 250444  1031 SDG/Felt pb.Irt
4486.35 DAN ACOSTA   Irvine, CA2:19:06.60 392857  46 
5510.25 NATHAN ADAMS   Dana Point, CA2:21:10.20 366468  261 KASEL CYCLING-JAX BI
6534.15 JOSE LAUREANORAMOS   Chino Hills, CA2:32:25.96 286824  141 DONS BIKES
7558.05 ROBERT SNYDER   San Juan Capistrano, CA2:42:00.78 129745  1209 BACKBONE
DNF MATT R. SMITH   San Clemente, CADNS 290790  103 BAGHOUSE/ROCKnROAD

Men - CAT 1 - MASTER - 40-44

 Place Points NameCity, StateTime USAC #BibTeam
1393.60 NATHAN LLOYD   Los Angeles, CA2:06:26.64 21397  775 FAMILY CYCLING CENTE
2415.42 OLIVER HUTCHINSON   Calabasas, CA2:07:39.21 247748  29 MUSCLE MILK/NEWBURY
3437.24 RYAN COX   San Juan Capistrano, CA2:10:59.10 287269  460 LINKED CYCLING
4459.06 TODD BOOTH   Santa Barbara, CA2:14:29.82 4249  1348 PLATINUM PERFORMANCE
5480.88 RYAN DAMATO   Trabuco Canyon, CA2:19:47.26 180119  119 LINKED CYCLING
6502.70 MARK WOODWARD   San Clemente, CA2:28:45.55 38931  1384 MACH 5 RACING
7524.52 DEREK OLDFIELD   San Diego, CA2:31:24.35 298873  1292 SPY/GIANT/RIDE
8546.34 RENE PULIDO   Pomona, CA2:34:40.53 240860  1325 SC VELO
9568.16 MICHAEL FARKAS   Sandiego, CA2:38:33.45 302153  300 AQUAL AL 2-SDBC
10589.98 MATTHIAS KEHDER   Alpine, CA3:33:31.10 162526  1352 
DNF RICH WEIS   Gilbert, AZDNS 57466  587 TREK FACTORY RACING
DNF LEN GEIGER   Vista, CADNS 370344  322 SKULD RACING

Men - CAT 1 - MASTER - 45-49

 Place Points NameCity, StateTime USAC #BibTeam
1422.04 TIM ZANDBERGEN   Aliso Viejo, CA2:11:59.40 210789  492 ROKFORM/ROCKnROAD
2438.84 GREG TWITTY   San Diego, CA2:15:34.02 50176  1363 RANCHOS SPECIAILIZED
3 ALEX ESTRADA   2:16:12.86  480 VELOZ
4472.44 RICHARD MERRICK   Agoura Hills, CA2:18:24.62 164036  355 CYCLING ESCA
5489.24 GARRY SUMMERS   South Pasadena, CA2:22:03.02 34637  664 BBI-SIC
6506.04 STEVE BOYD   San Diego, CA2:22:09.73 219929  159 AQUAL AL 2-SDBC
7522.84 PAUL ELKINS   Aliso Viejo, CA2:23:24.67 199495  1310 ROKFORM/ROCKnROAD
8539.64 GREG TURNER   Thousand Oaks, CA2:23:53.00 191067  167 TRIPLE THREAT
9556.44 ROGER MOORE   Santa Barbara, CA2:24:41.24 24953  19 PLATINUM PERFORMANCE
10573.24 TY SWARTZ   Rancho Santa Margarita, CA2:26:18.75 427542  104 BAGHOUSE/ROCKnROAD
11590.04 DERON DODERO   Sandiego, CA2:32:22.58 308179  51 SKILZ/SWAMIS
DNF ALEX TENO   Chatsworth, CADNF 345730  20 PLATINUM PERFORMANCE

Men - CAT 1 - MASTER - 50-54

 Place Points NameCity, StateTime USAC #BibTeam
1425.69 DAN TURNER   Thousand Oaks, CA2:19:36.86 183734  171 TRIPLE THREAT
2451.41 FRANCISCO VIDAL   Newhall, CA2:23:35.53 289756  22 PLATINUM PERFORMANCE
3477.13 JOHN SWANGUEN   San Diego, CA2:29:35.52 34733  1379 ZUMWALTS/CALIMAX
4502.85 KENNETH HEALY   Santee, CA2:30:23.54 400832  327 B3 BICYLE STUDIO
5528.57 ANDY OSBURN   Santa Barbara, CA2:37:58.03 109601  21 PLATINUM PERFORMANCE
6554.29 JOHNNY OMARA   Laguna Niguel, CA2:39:53.76 50872  101 BAGHOUSE/ROCKnROAD
DNF DERMOT CARROLL   Newbury Park, CADNS 6277  94 PLATINUM PERFORMANCE
DNF JOHN BIRON   Newbury Park, CADNF 79727  23 PLATINUM PERFORMANCE
DNF Bobby Langin   Thousand Oaks, CADNS 254985  95 PLATINUM PERFORMANCE

Men - CAT 1 - MASTER - 55-59

 Place Points NameCity, StateTime USAC #BibTeam
1452.24 RANDY LIECHTY   San Diego, CA2:23:13.88 89462  501 AQUAL AL 2-SDBC
2521.12 TED WILLIAMS   Solvang, CA2:33:56.62 378923  25 PLATINUM PERFORMANCE
3590.00 DAVID MARSH   Apple Valley, CA3:02:27.32 366655  1356 CHAINS REQUIRED
DNF DEAN SWANK   Crestline, CADNS 215598  26 PLATINUM PERFORMANCE
DNF STEVE SILVA   Goleta, CADNS 32669  24 PLATINUM PERFORMANCE

Men - CAT 1 - MASTER - 60-64

 Place Points NameCity, StateTime USAC #BibTeam
1472.77 JON MILLER   Newbury Park, CA1:29:48.14 167489  96 PLATINUM PERFORMANCE
2 JORGE HERNANDEZ   1:36:28.38  1304 TURBO
3590.01 PHILIPPE MINNITI   Canyon Country, CA2:03:29.87 183822  318 TEAM APE
DNF MARK BLAKESLEE   Big Bear City, CADNS 334790  190 BEAR VALLEY BIKES

Men - CAT 1 - MASTER - 65-69

 Place Points NameCity, StateTime USAC #BibTeam
1501.75 STAN FORD   Temcula1:42:49.26 12017  191 SOCAL ENDURANCE
2545.87 DEAN FERRANDINI   Newhall, CA1:58:20.13 11502  781 
3589.99 ROGER SEXTON   Valencia, CA2:16:34.64 142061  580 TEAM APE

Men - CAT 1 - MASTER - 70+

 Place Points NameCity, StateTime USAC #BibTeam
1 BUZ BROCKWAY   Granada Hills, CA2:06:39.98 86705  1329 
2 BRIAN KINIRY   Santa Maria, CA2:33:14.13 101576  306 TEAM APE
DNF TERRY DAHL   Santa Barbara, CADNS 189437  97 PLATINUM PERFORMANCE

Men - PRO

 Place Points NameCity, StateTime USAC #BibTeam
1284.70 Sid Taberlay   South Pasadena, CA1:55:19.74 279640  10 KENDA H20 OVERDRIVE/
2 IGNACIO TORRES   1:56:27.66  958 TURBO BICYCLES
3312.76 JOEL TITIUS   Corona, CA2:00:10.33 356595  210 SOCAL ENDURANCE
4326.79 CASEY WILLIAMS   Big Bear City, CA2:04:02.83 227522  646 WHOLE ATHLETE/SPECIA
5340.82 SEAN DONOVAN   Foothill Ranch, CA2:04:32.15 186481  700 KHS/CYTOMAX WAR RACI
6354.85 IVAN LIZARDI   2:05:23.29 399489  1360 TURBO BICYCLES
7368.88 ROMOLO FORCINO   Oak Hills, CA2:09:05.69 188303  1357 CHAINS REQUIRED BIKE
8382.91 CHARLES JENKINS   Ridgecrest, CA2:10:18.37 17736  458 KHS/WAR/CYTOMAX
9396.94 JOHN NOBIL   La Jolla, CA2:13:04.31 26168  500 BEAR VALLEY BIKES
10410.97 CHRIS HEINRICH   Placentia, CA2:13:15.30 173178  1243 THE PATH BIKE SHOP
11425.00 GARNET VERTICAN   Crestline, CA2:13:54.61 43191  799 BEAR VALLEY BIKES
12439.03 HAL HELBOCK   San Diego, CA2:15:14.74 111061  499 KHS/CYTOMAX WAR RACI
13453.06 DEREK HERMON   Big Bear Lake, CA2:19:49.97 15935  1366 BEAR VALLEY BIKES
DNF MIGUEL VALADEZ   DNF 400679  1365 BEAR VALLEY BIKES

Men - JUNIOR - 1-10

 Place Points NameCity, StateTime USAC #BibTeam
1516.89 DOMINIC TURNER   Thousand Oaks, CA0:39:04.44 331302  187 THRIPLE THREAT CYCLI
2 BLAKE WRAY   0:41:04.41  292 
3589.99 MICAH SANCHEZ   Winchester, CA0:50:14.52 397778  571 
DNF ENZO DEMARO   DNF  1371 FITNESS ZONE

Men - JUNIOR - 11-12

 Place Points NameCity, StateTime USAC #BibTeam
1532.75 JAG BARTON   Thousand Oaks, CA0:39:03.95 299371  1331 TRIPLE THREAT
2 MITCHELL DANN   0:39:19.62  903 
3570.91 JACKSON DOOLEY   Anaheim Hills0:40:54.52 366099  258 ROKFORM/ROCKnROAD
4 FORREST WELLS   0:56:03.02  1338 BEAR VALLEY BIKES

Men - JUNIOR - 13-14

 Place Points NameCity, StateTime USAC #BibTeam
1 KAHLO CHITRAROFF   0:32:48.50  111 THE BIKE SHOP TEMECU
2 JORDAN AGUILAR   0:38:00.27  280 
3 DYLAN LINDE   0:43:12.71  204 

Women - OPEN

 Place Points NameCity, StateTime USAC #BibTeam
1 HEATHER RANOA   Murrieta, CA1:38:22.67 240134  510 SOCAL ENDURANCE

Women - CAT 3 - SENIOR - 19-29

 Place Points NameCity, StateTime USAC #BibTeam
1 MERYL CHAFFEE   San Diego, CA1:58:07.21 405963  1319 

Women - CAT 3 - MASTER - 30-39

 Place Points NameCity, StateTime USAC #BibTeam
1 EVANGELINA RANGEL   2:25:52.09  1375 MEXICALI MTB

Women - CAT 3 - MASTER - 40-49

 Place Points NameCity, StateTime USAC #BibTeam
1 DIANNE DALTON   3:32:25.89  1337 
DNF SYLVIA KNUST   DNS  1305 A & B CYCLE

Women - CAT 3 - MASTER - 50+

 Place Points NameCity, StateTime USAC #BibTeam
1 ANNE-CATHERINE ROCH-LEVECQ   Oceanside, CA2:42:17.37 279897  285 

Women - CAT 2 - JUNIOR - 1-14

 Place Points NameCity, StateTime USAC #BibTeam
1 ELLE WILLIAMS   Big Bear City, CA1:57:21.45 302781  1241 BEAR VALLEY BIKES

Women - CAT 2 - JUNIOR - 15-18

 Place Points NameCity, StateTime USAC #BibTeam
1 EMA SUAREZ   Chula Vista, CA1:40:38.60 399308  1340 VELOZ

Women - CAT 2 - MASTER - 30-39

 Place Points NameCity, StateTime USAC #BibTeam
1 MEGHAN BROWN   Laguna Niguel, CA1:46:53.42 392220  133 KASEL CYCLING-JAX BI
2 SAMANTHA ADAMS   Dana Point1:50:39.30 366188  254 KASEL CYCLING-JAX BI

Women - CAT 2 - MASTER - 40-49

 Place Points NameCity, StateTime USAC #BibTeam
1 LISA RIVERA   Escondido, CA1:58:41.67 421179  867 

Women - CAT 2 - MASTER - 50-64

 Place Points NameCity, StateTime USAC #BibTeam
1 LAURA BROWN   1:42:14.25  1361 NINJA RIDERS

Women - CAT 1 - SENIOR - 19-29

 Place Points NameCity, StateTime USAC #BibTeam
1 AMANDA NAUMAN   Mission Viejo Ca1:37:44.17 292922  1290 

Women - CAT 1 - MASTER - 30-39

 Place Points NameCity, StateTime USAC #BibTeam
1 ALISON JONES   Laguna Beach, CA1:29:20.62 375116  1054 ROKFORM/ROCKnROAD
2 KIM RIDGEWAY   Las Vegas, NV1:46:15.91 341558  1081 MANDALAY BAY/MCGHIES

Women - CAT 1 - MASTER - 40-49

 Place Points NameCity, StateTime USAC #BibTeam
1 ROBIN KAMINSKY   Redondo Beach, CA1:43:27.90 361130  53 BLACK SHEEP SQUADRON
2 CYNTHIA MIRANDA   Carlsbad, CA1:49:48.79 345710  140 BEAR VALLEY BIKES

Women - PRO

 Place Points NameCity, StateTime USAC #BibTeam
1 LARISSA FITCHETT   Silverado, CA2:26:47.02 274696  511 LOST COAST BREWERY-M
2 DEYANIRA GUERRERO   La Mesa, CA2:26:47.54 228996  403 VELOZ/ELLSWORTH

Women - JUNIOR - 1-14

 Place Points NameCity, StateTime USAC #BibTeam
1 MARINA AGUILAR   0:50:15.41  672 
2 ARIA TURNER   Thousand Oaks1:11:58.72 391239  1332 TRIPLE THREAT CYCLIN

Mixed - TANDEMS

 Place Points NameCity, StateTime USAC #BibTeam
1 Gina Kelly   Simi Valley, CA1:39:33.14 310382  647 
1 Phil Kelly   Simi Valley, CA1:39:33.14 155728  647 

Report missing or incorrect license numbers

Volkswagen
USACDFOSMOBonk BreakerShimanoSpySierra NevadaCUORE
UCI USA Cycling is the official governing body for all disciplines of competitive cycling in the United States. The 501c3, membership-based organization aims both to achieve sustained success in international cycling competition and to grow competitive cycling in America while delivering an exceptional customer experience.
View Children's Online Privacy Protection Policy
US Olympic Committee